Wind_Speed
37 36 26 21 20 27 30 28 24 22 25 21 16 14 17 12 14 21 21 16 16 13 11 10 12 10 10 12 12 16 19 21 23 26 26 22 19 23 21 24 24 26 29 30
42 35 25 29 26 28 30 28 22 21 26 25 17 15 16 14 12 19 22 17 13 16 14 11 13 13 11 10 12 19 11 23 26 28 24 24 28 23 30 25 24 29 24 28
40 32 34 32 27 27 28 24 23 21 25 26 18 15 14 14 13 17 21 16 11 13 14 11 10 11 11 9 10 13 14 9 25 23 30 25 27 26 29 27 26 27 31 30
43 39 37 34 31 29 29 25 24 22 28 27 19 9 8 17 12 16 22 19 10 10 12 10 8 7 6 8 9 8 7 8 3 14 26 22 27 25 26 29 29 34 25 25
40 35 37 36 30 33 28 27 29 29 30 23 22 18 3 11 10 15 22 22 14 8 10 9 7 8 7 6 6 7 6 1 4 4 5 9 15 27 29 35 32 34 29 24
45 41 42 38 32 35 33 33 35 33 31 24 19 21 4 6 12 17 22 21 17 11 11 10 7 5 4 5 7 7 5 5 5 5 8 8 9 6 17 25 23 23 24 19
42 43 42 38 38 38 37 39 37 38 32 22 24 25 9 8 12 18 21 22 20 11 12 12 10 7 4 5 7 7 7 7 6 7 9 8 8 8 10 14 16 16 17 19
33 39 43 41 40 35 36 37 40 35 34 29 28 28 13 9 12 19 20 22 20 13 8 11 13 12 9 11 11 11 12 12 9 7 8 10 9 10 12 13 15 15 17 19
29 29 35 39 38 38 39 42 36 37 39 34 31 30 15 12 12 20 20 20 22 19 15 15 17 16 16 14 13 14 13 12 11 13 12 10 8 9 11 14 17 19 19 21
34 31 31 34 38 40 41 39 39 42 40 35 35 32 17 17 14 14 18 18 24 25 18 17 17 16 16 15 15 12 13 13 13 11 14 14 15 15 15 15 17 18 18 21
37 38 39 39 38 38 37 40 41 39 39 38 38 34 19 19 13 13 18 18 19 22 20 17 17 15 15 15 13 12 13 16 16 16 16 17 16 21 20 19 16 15 22 24
35 41 38 39 38 34 34 38 39 42 42 40 38 38 25 19 14 12 17 21 21 25 26 21 23 20 18 19 15 13 14 13 14 18 19 21 22 23 23 19 24 24 21 21
36 38 37 39 38 35 37 37 39 41 42 43 41 40 27 22 20 18 17 20 22 26 30 29 25 23 23 24 20 20 19 20 21 20 20 18 19 20 23 28 31 27 27 22
38 38 38 38 38 39 43 43 43 44 44 44 43 41 37 25 28 23 22 23 26 29 29 30 27 25 26 27 28 25 23 21 22 25 27 24 22 22 24 27 28 31 31 32
44 43 40 39 38 36 38 39 41 44 45 46 45 44 42 33 32 31 31 25 28 30 30 31 32 32 31 33 33 33 30 31 30 30 28 22 23 22 23 25 29 34 37 36
50 47 46 44 43 41 42 41 42 43 45 48 48 47 47 42 35 35 35 33 32 30 33 34 31 32 34 33 34 33 32 32 33 31 28 28 26 24 25 28 30 32 34 36
45 44 43 43 43 43 46 44 40 39 43 45 45 47 48 46 41 36 40 37 37 33 30 29 30 29 30 32 32 30 31 33 34 33 33 31 32 32 33 35 37 40 38 37
48 46 44 41 35 41 39 37 40 41 41 44 46 49 51 52 46 41 39 42 42 39 34 28 32 34 30 29 27 26 30 28 27 30 30 34 38 41 42 41 42 40 39 39
47 45 43 44 44 43 41 36 35 35 33 32 43 50 54 54 53 46 41 42 43 41 39 35 31 31 28 29 26 26 26 27 28 26 32 35 38 40 44 47 44 42 37 37
36 43 44 42 46 41 39 41 42 40 40 43 42 43 47 51 55 54 49 45 40 42 45 44 37 35 33 31 30 30 29 33 34 33 32 33 35 37 36 37 37 38 36 35
20 20 20 22 22 20 19 27 35 44 51 52 52 50 48 44 48 51 44 43 44 39 43 46 45 40 38 35 37 36 34 36 39 36 35 37 39 42 40 37 37 40 40 40
20 19 18 16 14 15 20 26 26 28 29 39 52 56 54 54 47 45 41 39 38 37 35 38 41 44 45 40 38 38 40 40 43 41 40 44 42 41 42 40 43 44 43 44
21 20 20 18 18 17 19 22 23 23 25 30 30 34 51 56 52 49 48 38 39 34 36 37 41 43 41 43 45 41 41 43 44 43 44 45 46 43 41 45 47 46 44 46
26 24 23 23 23 24 23 25 26 27 27 29 29 30 32 36 57 49 46 42 41 40 37 35 37 38 41 44 43 38 37 38 40 41 40 43 48 43 48 50 51 51 49 50
30 29 29 28 29 30 30 30 31 32 32 32 31 28 30 33 33 49 44 41 48 47 49 47 42 41 41 42 42 44 41 37 40 42 42 42 49 51 50 51 53 51 46 49
28 29 30 30 31 33 34 34 36 36 36 34 35 32 30 33 27 32 42 41 38 44 50 43 47 40 43 40 42 41 41 45 41 48 49 49 52 56 57 59 59 58 54 55
Wind_Direction
241 238 235 247 243 249 253 250 256 265 276 273 282 290 298 295 268 278 273 278 295 290 284 288 297 308 311 312 309 305 297 243 220 205 214 214 208 183 201 206 211 211 217 220
236 235 230 237 235 242 252 258 256 254 267 273 275 284 290 288 274 278 273 268 281 290 284 289 298 312 323 324 338 341 304 211 200 205 206 215 215 232 220 211 221 222 231 230
238 233 226 232 231 235 244 253 255 249 256 264 274 280 280 294 273 263 263 264 265 279 284 290 308 317 320 332 348 4 45 153 188 198 221 226 221 219 232 225 238 232 233 231
232 230 227 231 228 229 235 246 254 250 249 261 268 284 284 292 294 250 249 254 248 263 280 286 304 311 324 331 344 4 38 86 194 221 210 231 231 230 240 233 249 255 233 228
232 233 233 231 231 232 233 242 247 246 250 250 266 279 270 286 287 241 239 250 240 259 273 275 287 301 308 319 324 327 335 315 226 212 210 231 245 237 237 238 230 231 254 249
221 224 227 231 228 229 230 237 242 247 253 258 268 272 247 266 259 234 231 236 239 248 260 257 254 272 296 318 310 294 282 277 249 229 233 222 224 198 218 227 234 238 238 216
222 223 229 231 231 233 230 236 243 250 255 265 270 269 260 271 248 240 240 239 247 252 252 251 250 247 262 295 294 289 282 265 240 221 222 227 227 217 210 196 200 206 219 224
228 225 228 230 233 235 234 239 248 257 259 260 259 261 256 276 253 251 241 239 241 244 228 252 260 262 277 285 290 276 301 265 258 245 238 229 222 220 220 215 207 224 228 233
222 233 232 230 226 229 230 233 243 249 252 257 256 259 259 269 266 247 247 239 233 232 243 243 256 265 268 271 274 288 288 297 269 261 262 252 244 237 238 236 239 248 245 240
220 224 229 229 229 228 228 227 233 240 247 252 255 260 263 267 273 254 245 237 234 236 240 241 245 261 270 259 265 276 275 282 295 272 256 261 259 246 238 239 240 244 246 247
229 222 221 227 229 231 234 234 235 242 247 249 254 261 262 262 279 244 237 234 239 240 242 242 250 261 261 252 266 282 274 278 278 276 273 271 272 270 257 243 248 258 253 252
226 226 226 233 230 228 236 233 233 238 243 251 256 256 258 259 257 235 226 231 242 239 234 236 238 251 261 260 259 281 283 269 266 267 276 280 282 281 250 251 260 263 257 261
227 229 222 226 232 241 241 242 240 244 249 252 256 260 258 254 252 246 228 224 229 235 232 238 238 245 261 261 258 271 270 268 268 280 276 280 281 275 272 272 268 254 259 267
228 232 227 228 231 233 238 237 242 247 250 254 255 257 257 246 251 246 235 231 231 232 240 245 240 249 259 259 257 253 254 261 272 273 277 269 277 278 279 280 283 284 280 267
236 239 239 232 232 232 238 240 240 244 248 251 253 256 260 254 248 249 239 237 234 233 235 239 246 252 255 253 249 249 256 267 267 277 270 258 259 268 276 279 279 279 282 282
232 238 241 242 239 235 236 242 245 248 251 256 258 260 261 262 256 251 248 246 238 244 246 247 251 251 252 248 247 253 257 265 269 267 259 252 259 268 273 274 275 278 277 279
235 237 244 248 249 249 243 244 245 249 253 255 259 263 265 266 265 255 259 260 255 253 249 251 251 253 251 254 255 258 252 255 261 259 259 264 264 261 264 272 278 281 276 273
240 244 244 244 246 249 249 249 249 251 251 252 255 259 263 264 262 264 259 260 264 261 262 260 256 268 265 261 252 243 251 258 260 262 262 260 265 267 265 265 269 271 277 278
238 241 242 238 243 249 254 250 250 250 249 259 259 258 259 264 266 264 257 254 259 262 265 261 252 256 259 263 256 253 253 253 256 272 276 270 264 263 265 262 264 263 267 274
232 235 240 249 249 250 256 254 252 262 256 252 251 256 256 259 264 266 265 260 258 264 259 259 256 256 257 256 254 258 260 256 259 262 278 276 267 264 268 267 265 261 260 264
214 220 231 238 248 254 251 250 255 258 254 255 254 253 254 259 264 265 263 262 259 258 259 258 259 256 253 247 253 259 265 262 264 266 274 277 273 271 274 274 275 271 268 272
221 227 234 238 243 235 244 253 257 264 264 262 260 255 252 258 258 265 262 258 251 249 252 260 261 259 254 256 250 251 256 259 265 268 274 278 275 273 274 274 278 277 277 278
226 229 234 232 240 250 260 272 282 287 278 276 280 282 267 252 254 259 258 260 257 252 251 253 258 257 257 258 260 265 266 266 268 268 273 272 274 268 269 278 277 276 277 278
233 237 238 241 248 254 261 271 280 287 289 289 284 286 280 267 250 250 263 252 251 249 249 250 251 247 253 258 262 265 264 264 268 263 267 266 270 277 276 281 278 272 279 281
238 242 245 249 254 259 263 268 274 280 281 290 288 282 281 281 270 248 256 256 249 249 256 255 254 251 250 252 257 262 271 266 270 271 269 267 268 272 279 283 281 279 281 283
244 246 250 253 258 263 266 267 269 273 276 279 286 269 275 278 264 248 251 263 265 256 250 248 252 248 252 255 259 268 271 265 265 270 265 272 272 274 278 282 283 276 278 281
Height
5712 5716 5723 5728 5728 5728 5732 5730 5733 5735 5736 5737 5738 5738 5738 5737 5738 5738 5737 5735 5734 5732 5730 5729 5728 5728 5726 5723 5723 5720 5717 5717 5722 5727 5729 5733 5734 5738 5744 5747 5751 5754 5757 5759
5700 5708 5719 5719 5720 5722 5725 5728 5730 5730 5730 5731 5734 5733 5733 5734 5734 5734 5734 5732 5731 5730 5729 5727 5726 5725 5724 5722 5719 5715 5705 5708 5716 5724 5727 5730 5733 5734 5739 5742 5747 5751 5752 5754
5694 5706 5707 5710 5714 5717 5720 5724 5725 5725 5722 5724 5729 5730 5730 5729 5730 5731 5731 5730 5728 5728 5727 5725 5725 5724 5722 5720 5719 5716 5712 5711 5717 5721 5725 5726 5728 5731 5736 5739 5742 5745 5747 5748
5683 5694 5699 5703 5708 5711 5714 5718 5718 5719 5716 5718 5722 5725 5726 5724 5727 5728 5728 5728 5724 5725 5726 5725 5724 5723 5722 5720 5718 5718 5718 5718 5718 5717 5719 5724 5727 5729 5732 5734 5737 5740 5741 5743
5680 5689 5693 5695 5705 5704 5710 5709 5711 5711 5710 5714 5716 5720 5724 5722 5722 5723 5725 5725 5723 5722 5724 5724 5723 5722 5720 5720 5719 5719 5720 5718 5719 5718 5718 5722 5723 5723 5724 5727 5731 5735 5736 5738
5668 5677 5680 5688 5694 5697 5701 5701 5703 5704 5705 5709 5712 5715 5719 5717 5717 5718 5720 5721 5720 5720 5720 5722 5721 5721 5720 5719 5719 5719 5720 5721 5720 5719 5721 5721 5723 5720 5720 5723 5728 5729 5732 5733
5661 5668 5674 5681 5685 5689 5693 5694 5697 5697 5700 5705 5705 5706 5715 5714 5712 5714 5716 5717 5717 5718 5719 5720 5720 5720 5719 5719 5719 5718 5719 5719 5720 5721 5721 5721 5721 5720 5721 5721 5724 5725 5729 5733
5651 5659 5665 5673 5678 5685 5688 5691 5690 5692 5695 5698 5698 5698 5710 5710 5709 5709 5711 5713 5715 5715 5716 5717 5718 5719 5718 5718 5718 5718 5717 5718 5719 5720 5720 5719 5719 5719 5720 5722 5724 5726 5727 5730
5646 5651 5656 5662 5666 5672 5677 5679 5687 5686 5685 5688 5691 5694 5704 5704 5705 5705 5707 5708 5711 5711 5712 5713 5714 5716 5716 5716 5715 5715 5715 5715 5716 5718 5718 5718 5718 5718 5719 5722 5724 5724 5725 5727
5637 5645 5649 5652 5656 5662 5666 5673 5676 5674 5677 5681 5683 5687 5697 5698 5700 5701 5703 5704 5706 5707 5707 5710 5711 5711 5712 5713 5713 5713 5712 5712 5712 5713 5715 5716 5717 5717 5718 5719 5719 5720 5719 5719
5632 5636 5642 5644 5650 5656 5661 5664 5668 5671 5673 5673 5676 5681 5691 5692 5695 5697 5698 5700 5701 5704 5704 5705 5706 5707 5707 5708 5709 5710 5709 5709 5709 5708 5709 5711 5713 5713 5713 5714 5713 5713 5713 5715
5625 5630 5636 5640 5642 5647 5651 5655 5659 5660 5664 5667 5670 5673 5683 5687 5689 5691 5694 5696 5697 5699 5700 5701 5701 5703 5704 5704 5704 5705 5706 5706 5705 5705 5705 5706 5707 5707 5708 5708 5708 5709 5709 5709
5618 5622 5629 5634 5639 5642 5645 5649 5652 5654 5657 5659 5663 5666 5676 5681 5682 5684 5688 5689 5691 5693 5694 5694 5694 5697 5698 5699 5699 5700 5700 5700 5701 5702 5702 5702 5702 5703 5704 5704 5703 5703 5704 5702
5611 5615 5622 5628 5633 5636 5639 5643 5646 5649 5651 5654 5656 5658 5664 5673 5673 5677 5677 5682 5684 5686 5688 5690 5690 5691 5692 5693 5693 5694 5693 5693 5694 5694 5695 5695 5695 5694 5695 5695 5694 5694 5693 5694
5604 5608 5614 5620 5624 5629 5632 5635 5638 5640 5644 5645 5648 5650 5654 5663 5666 5667 5669 5669 5673 5678 5680 5683 5684 5685 5685 5685 5686 5686 5686 5686 5686 5687 5686 5688 5687 5687 5687 5687 5687 5686 5685 5685
5595 5600 5604 5610 5616 5620 5624 5627 5631 5633 5636 5638 5639 5642 5645 5651 5659 5660 5660 5662 5663 5665 5669 5672 5674 5677 5678 5679 5679 5680 5680 5678 5677 5678 5680 5678 5680 5681 5681 5680 5680 5680 5679 5677
5588 5592 5597 5601 5607 5611 5616 5620 5624 5627 5628 5631 5632 5633 5635 5640 5646 5651 5652 5655 5654 5656 5660 5661 5663 5664 5666 5669 5672 5671 5671 5670 5669 5670 5670 5670 5670 5670 5671 5671 5670 5670 5669 5667
5580 5585 5590 5594 5599 5602 5608 5611 5614 5617 5620 5621 5622 5623 5624 5626 5633 5638 5641 5640 5641 5644 5646 5649 5653 5656 5657 5657 5658 5662 5661 5661 5660 5661 5660 5660 5660 5659 5658 5658 5658 5657 5657 5656
5571 5574 5579 5584 5589 5594 5599 5605 5606 5607 5612 5611 5612 5614 5615 5616 5617 5624 5628 5630 5632 5634 5637 5639 5639 5642 5646 5648 5648 5650 5651 5652 5652 5653 5651 5649 5648 5647 5648 5648 5648 5647 5645 5645
5562 5568 5573 5576 5581 5586 5592 5594 5594 5597 5600 5600 5604 5605 5606 5607 5607 5609 5615 5619 5623 5623 5625 5628 5630 5632 5634 5636 5637 5638 5640 5641 5642 5642 5641 5639 5636 5636 5635 5637 5636 5635 5633 5631
5559 5563 5567 5570 5574 5579 5580 5578 5580 5586 5592 5590 5592 5594 5595 5597 5598 5598 5602 5606 5610 5613 5614 5616 5619 5621 5622 5624 5625 5627 5628 5629 5630 5631 5629 5628 5626 5624 5624 5624 5623 5622 5619 5617
5554 5558 5562 5566 5570 5573 5574 5574 5579 5580 5581 5580 5581 5582 5587 5587 5589 5588 5589 5594 5597 5600 5603 5604 5606 5608 5610 5612 5614 5615 5616 5617 5617 5617 5616 5615 5614 5613 5612 5611 5609 5607 5606 5604
5551 5555 5558 5563 5564 5567 5568 5568 5569 5571 5573 5573 5574 5572 5575 5578 5577 5579 5579 5582 5585 5588 5590 5592 5594 5596 5596 5598 5600 5601 5603 5604 5604 5604 5602 5602 5600 5600 5599 5598 5596 5593 5592 5590
5544 5548 5552 5556 5558 5559 5562 5562 5562 5562 5563 5565 5566 5564 5563 5561 5563 5567 5568 5572 5573 5575 5578 5580 5581 5582 5583 5585 5587 5589 5588 5589 5589 5589 5588 5588 5586 5586 5586 5584 5582 5580 5578 5575
5540 5543 5546 5549 5551 5552 5554 5555 5555 5555 5555 5555 5556 5555 5553 5552 5550 5556 5558 5559 5560 5562 5564 5567 5569 5569 5570 5571 5571 5573 5574 5575 5575 5575 5574 5573 5574 5572 5571 5569 5566 5565 5562 5560
5533 5536 5538 5541 5542 5543 5545 5547 5546 5547 5547 5547 5547 5546 5545 5544 5543 5543 5546 5547 5548 5548 5549 5552 5555 5557 5559 5559 5560 5561 5561 5561 5560 5560 5558 5558 5557 5556 5554 5552 5550 5548 5546 5544